Location: Unspecified
(44.4377°N, 88.0525°W)
Time: 00:57:47
(UTC-05:00)

Resurs 1-4 Rocket - Visible Passes

Search period start: 01 October 2014 00:00
Search period end: 11 October 2014 00:00
Orbit: 801 x 814 km, 98.3° (Epoch: 30 September)

Date Brightness Start Highest point End Pass type
(mag) Time Alt. Az. Time Alt. Az. Time Alt. Az.
01 Oct 4.0 04:03:43 10° NE 04:08:12 27° E 04:12:39 10° SSE visible
01 Oct 2.5 05:43:12 10° N 05:48:12 43° WNW 05:53:11 10° SW visible
02 Oct 4.7 03:40:12 10° NE 03:43:31 17° E 03:46:50 10° SE visible
02 Oct 2.1 05:18:35 10° N 05:23:53 69° WNW 05:29:10 10° SSW visible
03 Oct 2.2 04:54:09 10° NNE 04:59:30 75° ESE 05:04:48 10° S visible
04 Oct 3.1 04:29:53 10° NNE 04:35:01 46° E 04:40:06 10° S visible
04 Oct 3.1 06:10:16 10° N 06:14:37 26° WNW 06:18:57 10° WSW visible
05 Oct 3.9 04:05:52 10° NE 04:10:26 28° E 04:14:58 10° SSE visible
05 Oct 2.6 05:45:27 10° N 05:50:24 41° WNW 05:55:20 10° SW visible
06 Oct 4.6 03:42:17 10° NE 03:45:46 18° E 03:49:15 10° SE visible
06 Oct 2.1 05:20:49 10° N 05:26:06 65° WNW 05:31:21 10° SSW visible
07 Oct 5.1 03:20:45 10° E 03:21:01 10° E 03:21:16 10° E visible
07 Oct 2.2 04:56:21 10° NNE 05:01:43 79° ESE 05:07:01 10° S visible
08 Oct 3.0 04:32:04 10° NNE 04:37:14 48° E 04:42:21 10° S visible
08 Oct 3.2 06:12:33 10° N 06:16:48 25° WNW 06:21:02 10° WSW visible
09 Oct 3.8 04:08:01 10° NE 04:12:40 30° E 04:17:17 10° SSE visible
09 Oct 2.6 05:47:42 10° N 05:52:36 39° WNW 05:57:28 10° SW visible
10 Oct 4.5 03:44:22 10° NE 03:48:01 19° E 03:51:39 10° SE visible
10 Oct 2.1 05:23:03 10° N 05:28:18 62° WNW 05:33:31 10° SSW visible
